PBD532 UUWW-USPP

Flight info

Callsign PBD532
Flight time 1h 57m
Altitude 39000
Route OLMUN3D OLMUN T629 IPSIL T830 LAMGU N604 OGSIN P983 SUMOM SUMOM1F
Aircraft B738/M-SDE2E3FGHIRWXY/LB1

Departure

Time 2026-04-25 10:47
Airport Vnukovo International Airport (UUWW)

Arrival

Time 2026-04-25 12:44
Airport Perm International Airport (USPP)
Time Latitude Longitude Altitude Speed Heading
2026-04-25 09:48 55.60171 37.28042 693 ft 0 kts 36°
2026-04-25 10:30 55.60164 37.28032 688 ft 4 kts 42°
2026-04-25 10:30 55.60148 37.27996 684 ft 4 kts 71°
2026-04-25 10:31 55.60144 37.27951 687 ft 4 kts 96°
2026-04-25 10:31 55.60151 37.27906 686 ft 4 kts 118°
2026-04-25 10:31 55.60167 37.27870 688 ft 3 kts 150°
2026-04-25 10:31 55.60171 37.27867 684 ft 2 kts 155°
2026-04-25 10:35 55.60168 37.27869 689 ft 1 kts 155°
2026-04-25 10:36 55.60148 37.27888 689 ft 5 kts 148°
2026-04-25 10:36 55.60109 37.27951 690 ft 10 kts 128°
2026-04-25 10:36 55.60077 37.28080 691 ft 14 kts 101°
2026-04-25 10:36 55.60079 37.28229 693 ft 11 kts 85°
2026-04-25 10:37 55.60086 37.28362 690 ft 8 kts 84°
2026-04-25 10:37 55.60105 37.28453 690 ft 8 kts 54°
2026-04-25 10:37 55.60142 37.28523 693 ft 8 kts 46°
2026-04-25 10:37 55.60178 37.28590 689 ft 7 kts 46°
2026-04-25 10:38 55.60202 37.28634 691 ft 7 kts 46°
2026-04-25 10:38 55.60200 37.28718 693 ft 8 kts 120°
2026-04-25 10:38 55.60163 37.28795 693 ft 9 kts 131°
2026-04-25 10:38 55.60112 37.28865 691 ft 10 kts 156°
2026-04-25 10:39 55.60036 37.28902 690 ft 8 kts 167°
2026-04-25 10:39 55.59980 37.28925 690 ft 9 kts 168°
2026-04-25 10:39 55.59926 37.28950 689 ft 0 kts 165°
2026-04-25 10:44 55.59925 37.28950 689 ft 0 kts 165°
2026-04-25 10:44 55.59915 37.28955 688 ft 4 kts 165°
2026-04-25 10:44 55.59873 37.28974 691 ft 8 kts 166°
2026-04-25 10:45 55.59827 37.28994 686 ft 4 kts 165°
2026-04-25 10:45 55.59801 37.28983 691 ft 4 kts 214°
2026-04-25 10:45 55.59785 37.28943 689 ft 4 kts 242°
2026-04-25 10:45 55.59780 37.28926 687 ft 0 kts 246°
2026-04-25 10:46 55.59769 37.28881 689 ft 20 kts 247°
2026-04-25 10:46 55.59619 37.28212 688 ft 96 kts 248°
2026-04-25 10:46 55.59288 37.26759 720 ft 155 kts 248°
2026-04-25 10:47 55.58868 37.24981 1527 ft 157 kts 252°
2026-04-25 10:47 55.58482 37.23110 2452 ft 165 kts 249°
2026-04-25 10:47 55.57780 37.21351 3086 ft 192 kts 234°
2026-04-25 10:47 55.56889 37.19455 3695 ft 207 kts 236°
2026-04-25 10:48 55.55956 37.17362 4110 ft 223 kts 237°
2026-04-25 10:48 55.55054 37.15114 4802 ft 221 kts 244°
2026-04-25 10:48 55.54640 37.12468 5337 ft 227 kts 273°
2026-04-25 10:48 55.54655 37.09720 6236 ft 225 kts 275°
2026-04-25 10:49 55.54729 37.06944 6924 ft 227 kts 283°
2026-04-25 10:49 55.55362 37.04505 7571 ft 224 kts 315°
2026-04-25 10:49 55.56650 37.02974 8245 ft 225 kts 340°
2026-04-25 10:49 55.58199 37.02514 8932 ft 229 kts 356°
2026-04-25 10:50 55.59805 37.02494 9657 ft 232 kts 359°
2026-04-25 10:50 55.61431 37.02611 10336 ft 236 kts 10°
2026-04-25 10:50 55.62928 37.03820 10976 ft 242 kts 36°
2026-04-25 10:50 55.63975 37.06190 11673 ft 250 kts 64°
2026-04-25 10:51 55.64339 37.09228 12367 ft 258 kts 84°
2026-04-25 10:51 55.64358 37.12400 13082 ft 263 kts 88°
2026-04-25 10:51 55.64326 37.15704 13807 ft 267 kts 88°
2026-04-25 10:51 55.64297 37.18974 14502 ft 270 kts 89°
2026-04-25 10:52 55.63945 37.22271 15195 ft 277 kts 107°
2026-04-25 10:52 55.63316 37.25509 15955 ft 279 kts 107°
2026-04-25 10:52 55.62695 37.28761 16685 ft 279 kts 107°
2026-04-25 10:52 55.62086 37.32029 17468 ft 280 kts 107°
2026-04-25 10:53 55.61468 37.35386 17813 ft 300 kts 107°
2026-04-25 10:53 55.60792 37.39065 17831 ft 327 kts 107°
2026-04-25 10:53 55.60075 37.42981 17809 ft 339 kts 107°
2026-04-25 10:53 55.59354 37.46907 17782 ft 331 kts 107°
2026-04-25 10:54 55.58645 37.50752 17794 ft 340 kts 107°
2026-04-25 10:54 55.58139 37.53501 17816 ft 356 kts 108°
2026-04-25 10:54 55.57295 37.59181 17783 ft 357 kts 92°
2026-04-25 10:54 55.57536 37.63429 17792 ft 341 kts 73°
2026-04-25 10:55 55.58445 37.67177 17818 ft 325 kts 60°
2026-04-25 10:55 55.59580 37.70591 17798 ft 321 kts 57°
2026-04-25 10:55 55.60743 37.73966 17825 ft 321 kts 58°
2026-04-25 10:55 55.61892 37.77366 17821 ft 322 kts 59°
2026-04-25 10:56 55.63025 37.80782 17834 ft 322 kts 59°
2026-04-25 10:56 55.64131 37.84210 17830 ft 321 kts 64°
2026-04-25 10:56 55.64689 37.88024 17846 ft 323 kts 87°
2026-04-25 10:56 55.64425 37.91967 17851 ft 322 kts 102°
2026-04-25 10:57 55.64054 37.95878 17979 ft 321 kts 90°
2026-04-25 10:57 55.64315 37.99692 18729 ft 313 kts 75°
2026-04-25 10:57 55.64944 38.03335 19724 ft 307 kts 71°
2026-04-25 10:57 55.65615 38.06938 20421 ft 310 kts 71°
2026-04-25 10:58 55.66303 38.10588 20659 ft 313 kts 71°
2026-04-25 10:58 55.66986 38.14233 20683 ft 312 kts 71°
2026-04-25 10:58 55.67668 38.17907 20712 ft 316 kts 72°
2026-04-25 10:58 55.68352 38.21619 20691 ft 316 kts 72°
2026-04-25 10:59 55.69031 38.25333 20693 ft 317 kts 72°
2026-04-25 10:59 55.69706 38.29047 20689 ft 317 kts 72°
2026-04-25 10:59 55.70380 38.32763 20695 ft 317 kts 73°
2026-04-25 10:59 55.71052 38.36487 20697 ft 317 kts 73°
2026-04-25 11:00 55.71722 38.40207 20694 ft 317 kts 73°
2026-04-25 11:00 55.72392 38.43939 20684 ft 316 kts 73°
2026-04-25 11:00 55.73049 38.47607 20684 ft 316 kts 73°
2026-04-25 11:00 55.73716 38.51332 20693 ft 315 kts 74°
2026-04-25 11:01 55.74378 38.55044 20697 ft 315 kts 74°
2026-04-25 11:01 55.75037 38.58750 20693 ft 315 kts 74°
2026-04-25 11:01 55.75697 38.62462 20691 ft 315 kts 75°
2026-04-25 11:01 55.76355 38.66167 20701 ft 314 kts 75°
2026-04-25 11:02 55.77001 38.69823 20687 ft 314 kts 75°
2026-04-25 11:02 55.77656 38.73533 20681 ft 314 kts 75°
2026-04-25 11:02 55.78309 38.77240 20683 ft 314 kts 75°
2026-04-25 11:02 55.78956 38.80935 20697 ft 312 kts 75°
2026-04-25 11:03 55.79604 38.84616 20682 ft 313 kts 75°
2026-04-25 11:03 55.80253 38.88318 20686 ft 313 kts 75°
2026-04-25 11:03 55.80901 38.92012 20672 ft 314 kts 75°
2026-04-25 11:03 55.81548 38.95723 20683 ft 314 kts 75°
2026-04-25 11:04 55.82192 38.99425 20692 ft 314 kts 76°
2026-04-25 11:04 55.82840 39.03150 20680 ft 314 kts 76°
2026-04-25 11:04 55.83484 39.06864 20671 ft 314 kts 76°
2026-04-25 11:04 55.83909 39.09320 20677 ft 314 kts 76°
2026-04-25 11:05 55.84803 39.14216 20668 ft 315 kts 68°
2026-04-25 11:05 55.86073 39.17427 20781 ft 323 kts 49°
2026-04-25 11:05 55.87645 39.20373 21453 ft 323 kts 48°
2026-04-25 11:05 55.89188 39.23251 22093 ft 328 kts 49°
2026-04-25 11:06 55.90769 39.26243 22714 ft 333 kts 49°
2026-04-25 11:06 55.92358 39.29277 23367 ft 336 kts 49°
2026-04-25 11:06 55.94010 39.32254 23886 ft 339 kts 45°
2026-04-25 11:06 55.95748 39.35145 24448 ft 343 kts 44°
2026-04-25 11:07 55.97515 39.38029 24970 ft 346 kts 44°
2026-04-25 11:07 55.99302 39.40953 25521 ft 348 kts 44°
2026-04-25 11:07 56.01086 39.43897 26039 ft 351 kts 43°
2026-04-25 11:07 56.02885 39.46884 26574 ft 353 kts 43°
2026-04-25 11:08 56.04656 39.49835 27175 ft 353 kts 43°
2026-04-25 11:08 56.06466 39.52859 27626 ft 358 kts 43°
2026-04-25 11:08 56.08180 39.56090 28176 ft 359 kts 52°
2026-04-25 11:08 56.09603 39.59768 28705 ft 361 kts 56°
2026-04-25 11:09 56.10966 39.63578 29168 ft 365 kts 57°
2026-04-25 11:09 56.12323 39.67442 29677 ft 367 kts 57°
2026-04-25 11:09 56.13685 39.71326 30050 ft 369 kts 56°
2026-04-25 11:09 56.15061 39.75234 30401 ft 372 kts 56°
2026-04-25 11:10 56.16453 39.79171 30749 ft 375 kts 56°
2026-04-25 11:10 56.17386 39.81802 30986 ft 377 kts 56°
2026-04-25 11:10 56.19263 39.87088 31446 ft 380 kts 55°
2026-04-25 11:10 56.20691 39.91104 31760 ft 383 kts 55°
2026-04-25 11:11 56.22133 39.95163 32114 ft 385 kts 56°
2026-04-25 11:11 56.23574 39.99226 32458 ft 387 kts 55°
2026-04-25 11:11 56.25027 40.03332 32767 ft 390 kts 56°
2026-04-25 11:11 56.26487 40.07469 33065 ft 393 kts 55°
2026-04-25 11:12 56.27956 40.11637 33369 ft 395 kts 55°
2026-04-25 11:12 56.29434 40.15834 33671 ft 398 kts 56°
2026-04-25 11:12 56.30914 40.20044 33914 ft 400 kts 55°
2026-04-25 11:12 56.32410 40.24308 34149 ft 403 kts 56°
2026-04-25 11:13 56.33906 40.28581 34386 ft 405 kts 56°
2026-04-25 11:13 56.35412 40.32893 34630 ft 407 kts 56°
2026-04-25 11:13 56.36926 40.37231 34862 ft 409 kts 56°
2026-04-25 11:13 56.38444 40.41590 35087 ft 411 kts 56°
2026-04-25 11:14 56.39969 40.45977 35296 ft 413 kts 56°
2026-04-25 11:14 56.41499 40.50386 35516 ft 415 kts 56°
2026-04-25 11:14 56.43035 40.54819 35728 ft 417 kts 56°
2026-04-25 11:14 56.44579 40.59285 35932 ft 419 kts 56°
2026-04-25 11:15 56.45992 40.63839 36119 ft 423 kts 64°
2026-04-25 11:15 56.47008 40.68854 36321 ft 426 kts 72°
2026-04-25 11:15 56.47802 40.74036 36524 ft 428 kts 73°
2026-04-25 11:15 56.48559 40.79266 36708 ft 430 kts 74°
2026-04-25 11:16 56.50072 40.89807 37085 ft 434 kts 74°
2026-04-25 11:16 56.50844 40.95107 37268 ft 436 kts 74°
2026-04-25 11:16 56.51613 41.00348 37435 ft 437 kts 73°
2026-04-25 11:17 56.52401 41.05688 37618 ft 439 kts 73°
2026-04-25 11:17 56.53192 41.11037 37800 ft 440 kts 73°
2026-04-25 11:17 56.53986 41.16418 37956 ft 442 kts 73°
2026-04-25 11:17 56.54779 41.21813 38092 ft 444 kts 73°
2026-04-25 11:18 56.55576 41.27244 38259 ft 446 kts 73°
2026-04-25 11:18 56.56371 41.32686 38408 ft 447 kts 74°
2026-04-25 11:18 56.57167 41.38155 38513 ft 446 kts 74°
2026-04-25 11:18 56.57954 41.43582 38607 ft 444 kts 74°
2026-04-25 11:19 56.59519 41.54433 38656 ft 450 kts 74°
2026-04-25 11:19 56.61106 41.65503 38667 ft 457 kts 74°
2026-04-25 11:20 56.62710 41.76781 38669 ft 464 kts 75°
2026-04-25 11:20 56.64326 41.88220 38660 ft 470 kts 75°
2026-04-25 11:21 56.65950 41.99811 38647 ft 475 kts 75°
2026-04-25 11:21 56.67568 42.11447 38643 ft 475 kts 75°
2026-04-25 11:22 56.68913 42.21182 38659 ft 479 kts 75°
2026-04-25 11:22 56.70798 42.34926 38643 ft 483 kts 75°
2026-04-25 11:23 56.72419 42.46844 38635 ft 485 kts 75°
2026-04-25 11:23 56.74046 42.58776 38638 ft 486 kts 74°
2026-04-25 11:24 56.75936 42.70590 38631 ft 485 kts 72°
2026-04-25 11:24 56.77918 42.82328 38628 ft 484 kts 72°
2026-04-25 11:25 56.79856 42.94060 38627 ft 483 kts 73°
2026-04-25 11:25 56.81751 43.05808 38633 ft 482 kts 73°
2026-04-25 11:26 56.83304 43.15564 38633 ft 481 kts 73°
2026-04-25 11:26 56.85160 43.27299 38623 ft 480 kts 73°
2026-04-25 11:27 56.87006 43.39040 38620 ft 480 kts 73°
2026-04-25 11:27 56.88532 43.48807 38627 ft 480 kts 73°
2026-04-25 11:28 56.90649 43.62444 38612 ft 480 kts 73°
2026-04-25 11:28 56.92462 43.74208 38614 ft 480 kts 73°
2026-04-25 11:29 56.94265 43.85995 38612 ft 480 kts 74°
2026-04-25 11:29 56.96048 43.97737 38606 ft 481 kts 74°
2026-04-25 11:30 56.97833 44.09574 38604 ft 482 kts 74°
2026-04-25 11:30 56.99613 44.21470 38581 ft 485 kts 72°
2026-04-25 11:31 57.01401 44.33493 38598 ft 490 kts 72°
2026-04-25 11:31 57.03190 44.45619 38600 ft 494 kts 73°
2026-04-25 11:32 57.04977 44.57832 38597 ft 495 kts 73°
2026-04-25 11:32 57.06164 44.65991 38585 ft 495 kts 73°
2026-04-25 11:33 57.07921 44.78156 38579 ft 495 kts 73°
2026-04-25 11:33 57.09674 44.90377 38579 ft 493 kts 73°
2026-04-25 11:34 57.11406 45.02548 38580 ft 491 kts 73°
2026-04-25 11:34 57.13123 45.14707 38576 ft 490 kts 73°
2026-04-25 11:35 57.14822 45.26835 38572 ft 488 kts 73°
2026-04-25 11:35 57.16507 45.38950 38566 ft 487 kts 73°
2026-04-25 11:36 57.18168 45.50992 38563 ft 486 kts 74°
2026-04-25 11:36 57.19682 45.62051 38560 ft 485 kts 74°
2026-04-25 11:37 57.21030 45.71967 38555 ft 485 kts 74°
2026-04-25 11:37 57.22659 45.84031 38553 ft 484 kts 74°
2026-04-25 11:38 57.24269 45.96055 38549 ft 484 kts 75°
2026-04-25 11:38 57.25877 46.08156 38546 ft 484 kts 75°
2026-04-25 11:39 57.27471 46.20257 38543 ft 485 kts 75°
2026-04-25 11:39 57.29055 46.32374 38539 ft 485 kts 75°
2026-04-25 11:40 57.30623 46.44472 38537 ft 486 kts 75°
2026-04-25 11:40 57.32192 46.56681 38531 ft 487 kts 75°
2026-04-25 11:41 57.33754 46.68918 38529 ft 488 kts 75°
2026-04-25 11:41 57.35582 46.80915 38515 ft 486 kts 65°
2026-04-25 11:42 57.38373 46.92299 38515 ft 486 kts 63°
2026-04-25 11:42 57.41231 47.03679 38518 ft 486 kts 64°
2026-04-25 11:43 57.44018 47.15120 38514 ft 486 kts 64°
2026-04-25 11:43 57.46770 47.26604 38513 ft 486 kts 64°
2026-04-25 11:44 57.49513 47.38086 38507 ft 486 kts 64°
2026-04-25 11:44 57.52249 47.49582 38500 ft 486 kts 64°
2026-04-25 11:45 57.54963 47.61031 38504 ft 485 kts 65°
2026-04-25 11:45 57.57685 47.72578 38505 ft 485 kts 65°
2026-04-25 11:46 57.60391 47.84120 38510 ft 485 kts 65°
2026-04-25 11:46 57.63067 47.95596 38503 ft 485 kts 65°
2026-04-25 11:47 57.65750 48.07164 38504 ft 486 kts 65°
2026-04-25 11:47 57.68428 48.18777 38504 ft 486 kts 65°
2026-04-25 11:48 57.71095 48.30399 38505 ft 486 kts 65°
2026-04-25 11:48 57.73739 48.41980 38498 ft 487 kts 66°
2026-04-25 11:49 57.75567 48.54163 38502 ft 487 kts 81°
2026-04-25 11:49 57.76421 48.66768 38497 ft 487 kts 83°
2026-04-25 11:50 57.77223 48.79298 38499 ft 487 kts 82°
2026-04-25 11:50 57.78071 48.91891 38489 ft 487 kts 82°
2026-04-25 11:51 57.78937 49.04484 38486 ft 487 kts 82°
2026-04-25 11:51 57.79796 49.17094 38478 ft 488 kts 82°
2026-04-25 11:52 57.80641 49.29738 38477 ft 487 kts 82°
2026-04-25 11:52 57.81464 49.42272 38474 ft 488 kts 83°
2026-04-25 11:53 57.82280 49.54907 38472 ft 487 kts 83°
2026-04-25 11:53 57.83085 49.67546 38469 ft 488 kts 83°
2026-04-25 11:54 57.83876 49.80192 38464 ft 488 kts 83°
2026-04-25 11:55 57.85042 49.99164 38465 ft 488 kts 83°
2026-04-25 11:55 57.85808 50.11856 38468 ft 489 kts 83°
2026-04-25 11:56 57.86567 50.24557 38460 ft 489 kts 84°
2026-04-25 11:56 57.87310 50.37190 38464 ft 490 kts 84°
2026-04-25 11:57 57.88047 50.49951 38461 ft 490 kts 84°
2026-04-25 11:57 57.88770 50.62684 38463 ft 490 kts 84°
2026-04-25 11:58 57.89479 50.75424 38460 ft 490 kts 84°
2026-04-25 11:58 57.90176 50.88166 38460 ft 490 kts 84°
2026-04-25 11:59 57.90857 51.00854 38465 ft 490 kts 85°
2026-04-25 11:59 57.91529 51.13622 38460 ft 490 kts 85°
2026-04-25 12:00 57.92508 51.32689 38463 ft 490 kts 85°
2026-04-25 12:01 57.93465 51.51839 38457 ft 490 kts 85°
2026-04-25 12:01 57.94086 51.64617 38455 ft 490 kts 85°
2026-04-25 12:02 57.94996 51.83767 38453 ft 490 kts 85°
2026-04-25 12:02 57.95587 51.96554 38450 ft 490 kts 86°
2026-04-25 12:03 57.96167 52.09342 38454 ft 490 kts 86°
2026-04-25 12:03 57.96734 52.22129 38453 ft 490 kts 86°
2026-04-25 12:04 57.97289 52.34931 38454 ft 490 kts 86°
2026-04-25 12:04 57.97829 52.47650 38458 ft 489 kts 86°
2026-04-25 12:05 57.98359 52.60438 38457 ft 489 kts 86°
2026-04-25 12:05 57.98876 52.73222 38456 ft 489 kts 86°
2026-04-25 12:06 57.99380 52.85998 38460 ft 489 kts 87°
2026-04-25 12:06 57.99871 52.98774 38459 ft 488 kts 87°
2026-04-25 12:07 58.00351 53.11612 37849 ft 495 kts 87°
2026-04-25 12:07 58.00588 53.18060 37237 ft 491 kts 87°
2026-04-25 12:07 58.00820 53.24497 36575 ft 490 kts 87°
2026-04-25 12:08 58.01049 53.30913 35921 ft 489 kts 87°
2026-04-25 12:08 58.01274 53.37322 35264 ft 489 kts 87°
2026-04-25 12:08 58.01496 53.43718 34520 ft 491 kts 87°
2026-04-25 12:08 58.01713 53.50080 33789 ft 492 kts 87°
2026-04-25 12:09 58.01929 53.56531 32928 ft 494 kts 88°
2026-04-25 12:09 58.02143 53.62996 32084 ft 493 kts 88°
2026-04-25 12:09 58.02354 53.69468 31260 ft 493 kts 88°
2026-04-25 12:09 58.02562 53.75921 30418 ft 492 kts 88°
2026-04-25 12:10 58.02765 53.82364 29556 ft 492 kts 88°
2026-04-25 12:10 58.02967 53.88816 28442 ft 491 kts 88°
2026-04-25 12:10 58.03164 53.95225 27441 ft 488 kts 88°
2026-04-25 12:10 58.03357 54.01616 26423 ft 486 kts 89°
2026-04-25 12:11 58.03549 54.07957 25387 ft 484 kts 89°
2026-04-25 12:11 58.03738 54.14239 24676 ft 476 kts 89°
2026-04-25 12:11 58.03922 54.20359 23921 ft 469 kts 89°
2026-04-25 12:11 58.04101 54.26454 23182 ft 462 kts 89°
2026-04-25 12:12 58.04276 54.32495 22330 ft 456 kts 90°
2026-04-25 12:12 58.04388 54.36436 21808 ft 452 kts 90°
2026-04-25 12:12 58.04606 54.44268 20833 ft 441 kts 90°
2026-04-25 12:12 58.04764 54.50022 20113 ft 434 kts 90°
2026-04-25 12:13 58.04914 54.55606 19432 ft 427 kts 90°
2026-04-25 12:13 58.05062 54.61222 18736 ft 420 kts 90°
2026-04-25 12:13 58.05204 54.66623 18042 ft 415 kts 91°
2026-04-25 12:13 58.05343 54.72046 17307 ft 410 kts 91°
2026-04-25 12:14 58.05480 54.77407 16611 ft 404 kts 90°
2026-04-25 12:14 58.05813 54.82652 15944 ft 401 kts 83°
2026-04-25 12:14 58.06397 54.87784 15309 ft 398 kts 80°
2026-04-25 12:14 58.07060 54.92845 14617 ft 396 kts 79°
2026-04-25 12:15 58.07729 54.97877 13963 ft 393 kts 79°
2026-04-25 12:15 58.08159 55.01187 13532 ft 391 kts 79°
2026-04-25 12:15 58.08788 55.06187 12837 ft 388 kts 80°
2026-04-25 12:15 58.09390 55.11130 12174 ft 384 kts 81°
2026-04-25 12:16 58.09973 55.16022 11540 ft 380 kts 81°
2026-04-25 12:16 58.10730 55.22472 10678 ft 377 kts 81°
2026-04-25 12:16 58.11109 55.25723 10337 ft 373 kts 81°
2026-04-25 12:16 58.11655 55.30411 10231 ft 357 kts 82°
2026-04-25 12:17 58.12175 55.34879 10067 ft 344 kts 82°
2026-04-25 12:17 58.12671 55.39173 9928 ft 332 kts 82°
2026-04-25 12:17 58.13153 55.43371 9798 ft 321 kts 82°
2026-04-25 12:17 58.13620 55.47445 9670 ft 312 kts 82°
2026-04-25 12:18 58.14073 55.51401 9539 ft 303 kts 83°
2026-04-25 12:18 58.14512 55.55264 9290 ft 299 kts 83°
2026-04-25 12:18 58.14948 55.59113 8965 ft 298 kts 83°
2026-04-25 12:18 58.15360 55.62943 8654 ft 294 kts 88°
2026-04-25 12:19 58.15358 55.69248 8127 ft 285 kts 100°
2026-04-25 12:19 58.15167 55.74239 7712 ft 283 kts 100°
2026-04-25 12:19 58.15025 55.77949 7405 ft 282 kts 100°
2026-04-25 12:20 58.14896 55.81654 7094 ft 281 kts 100°
2026-04-25 12:20 58.14776 55.85349 6787 ft 280 kts 100°
2026-04-25 12:20 58.14662 55.89033 6476 ft 280 kts 99°
2026-04-25 12:20 58.14553 55.92660 6165 ft 279 kts 99°
2026-04-25 12:21 58.14444 55.96320 5858 ft 278 kts 99°
2026-04-25 12:21 58.14335 55.99969 5543 ft 276 kts 99°
2026-04-25 12:21 58.14228 56.03590 5240 ft 274 kts 99°
2026-04-25 12:21 58.14120 56.07194 4934 ft 273 kts 99°
2026-04-25 12:22 58.14013 56.10765 4682 ft 270 kts 99°
2026-04-25 12:22 58.13909 56.14259 4574 ft 262 kts 99°
2026-04-25 12:22 58.13672 56.17583 4434 ft 247 kts 117°
2026-04-25 12:22 58.12820 56.20230 4361 ft 229 kts 137°
2026-04-25 12:23 58.11723 56.22316 4260 ft 219 kts 141°
2026-04-25 12:23 58.10628 56.24258 4156 ft 212 kts 142°
2026-04-25 12:23 58.09582 56.26121 4071 ft 205 kts 142°
2026-04-25 12:23 58.08549 56.27975 3961 ft 199 kts 142°
2026-04-25 12:24 58.07529 56.29605 3753 ft 187 kts 158°
2026-04-25 12:24 58.06341 56.29937 3754 ft 168 kts 190°
2026-04-25 12:24 58.05309 56.29061 3754 ft 161 kts 218°
2026-04-25 12:24 58.04546 56.27585 3647 ft 155 kts 220°
2026-04-25 12:25 58.03805 56.26147 3453 ft 151 kts 222°
2026-04-25 12:25 58.03094 56.24717 3276 ft 144 kts 221°
2026-04-25 12:25 58.02416 56.23380 3093 ft 139 kts 221°
2026-04-25 12:25 58.01747 56.22080 2937 ft 137 kts 221°
2026-04-25 12:26 58.01117 56.20853 2902 ft 129 kts 220°
2026-04-25 12:26 58.00479 56.19623 2735 ft 132 kts 220°
2026-04-25 12:26 57.99849 56.18404 2552 ft 127 kts 220°
2026-04-25 12:26 57.99242 56.17232 2387 ft 124 kts 220°
2026-04-25 12:27 57.98643 56.16074 2212 ft 123 kts 221°
2026-04-25 12:27 57.98047 56.14919 2046 ft 122 kts 221°
2026-04-25 12:27 57.97445 56.13756 1882 ft 127 kts 221°
2026-04-25 12:27 57.96816 56.12539 1712 ft 131 kts 220°
2026-04-25 12:28 57.96179 56.11304 1515 ft 132 kts 221°
2026-04-25 12:28 57.95545 56.10075 1310 ft 130 kts 220°
2026-04-25 12:28 57.94914 56.08860 1110 ft 132 kts 221°
2026-04-25 12:28 57.94288 56.07633 948 ft 132 kts 219°
2026-04-25 12:29 57.93634 56.06371 754 ft 137 kts 221°
2026-04-25 12:29 57.92963 56.05047 588 ft 142 kts 220°
2026-04-25 12:29 57.92408 56.03999 505 ft 139 kts 221°
2026-04-25 12:29 57.91696 56.02643 875 ft 150 kts 220°
2026-04-25 12:30 57.91020 56.01301 1757 ft 134 kts 222°
2026-04-25 12:30 57.90191 55.99691 1439 ft 199 kts 223°
2026-04-25 12:30 57.89205 55.97769 1872 ft 205 kts 223°
2026-04-25 12:30 57.88216 55.95841 2353 ft 210 kts 222°
2026-04-25 12:31 57.87209 55.93881 2674 ft 208 kts 222°
2026-04-25 12:31 57.86150 55.91830 2697 ft 228 kts 222°
2026-04-25 12:31 57.85039 55.89679 2711 ft 231 kts 223°
2026-04-25 12:31 57.83909 55.87486 2692 ft 235 kts 224°
2026-04-25 12:32 57.83048 55.84859 2684 ft 241 kts 246°
2026-04-25 12:32 57.82794 55.81743 2697 ft 246 kts 266°
2026-04-25 12:32 57.83182 55.78560 2706 ft 259 kts 288°
2026-04-25 12:32 57.84265 55.75754 2703 ft 274 kts 314°
2026-04-25 12:33 57.85953 55.74021 2691 ft 283 kts 343°
2026-04-25 12:33 57.87908 55.73951 2691 ft 285 kts 14°
2026-04-25 12:33 57.89670 55.75560 2716 ft 280 kts 40°
2026-04-25 12:33 57.91156 55.77936 2708 ft 280 kts 45°
2026-04-25 12:34 57.92587 55.80425 2721 ft 282 kts 45°
2026-04-25 12:34 57.94010 55.82924 2710 ft 284 kts 46°
2026-04-25 12:34 57.95463 55.85463 2715 ft 286 kts 45°
2026-04-25 12:34 57.96452 55.87182 2697 ft 287 kts 45°
2026-04-25 12:35 57.98387 55.90526 2693 ft 281 kts 45°
2026-04-25 12:35 57.99814 55.92983 2837 ft 275 kts 45°
2026-04-25 12:35 58.01243 55.95443 3027 ft 280 kts 45°
2026-04-25 12:35 58.02680 55.97916 3086 ft 281 kts 45°
2026-04-25 12:36 58.04135 56.00419 3093 ft 282 kts 45°
2026-04-25 12:36 58.05578 56.02904 3100 ft 281 kts 45°
2026-04-25 12:36 58.07023 56.05394 3097 ft 280 kts 45°
2026-04-25 12:36 58.08437 56.07896 3089 ft 278 kts 48°
2026-04-25 12:37 58.09782 56.10499 3090 ft 275 kts 50°
2026-04-25 12:37 58.11103 56.13122 3096 ft 273 kts 52°
2026-04-25 12:37 58.11989 56.16166 3102 ft 262 kts 82°
2026-04-25 12:37 58.12037 56.19507 3113 ft 257 kts 107°
2026-04-25 12:38 58.11372 56.22582 3103 ft 250 kts 129°
2026-04-25 12:38 58.10226 56.24983 3106 ft 244 kts 140°
2026-04-25 12:38 58.08997 56.27187 3102 ft 243 kts 143°
2026-04-25 12:38 58.07535 56.28611 3103 ft 232 kts 170°
2026-04-25 12:39 58.05982 56.28601 3097 ft 218 kts 192°
2026-04-25 12:39 58.04619 56.27567 3084 ft 208 kts 211°
2026-04-25 12:39 58.03551 56.25828 3098 ft 199 kts 222°
2026-04-25 12:39 58.02626 56.24000 3018 ft 192 kts 224°
2026-04-25 12:40 58.01736 56.22172 2954 ft 179 kts 223°
2026-04-25 12:40 58.00923 56.20523 2853 ft 164 kts 223°
2026-04-25 12:40 58.00160 56.19011 2646 ft 153 kts 221°
2026-04-25 12:40 57.99441 56.17614 2437 ft 140 kts 221°
2026-04-25 12:41 57.98807 56.16386 2270 ft 128 kts 220°
2026-04-25 12:41 57.98190 56.15195 2094 ft 127 kts 221°
2026-04-25 12:41 57.97579 56.14013 1909 ft 125 kts 221°
2026-04-25 12:41 57.96975 56.12842 1741 ft 125 kts 220°
2026-04-25 12:42 57.96357 56.11649 1570 ft 130 kts 221°
2026-04-25 12:42 57.95939 56.10839 1441 ft 131 kts 221°
2026-04-25 12:42 57.95112 56.09241 1201 ft 122 kts 221°
2026-04-25 12:42 57.94519 56.08091 969 ft 123 kts 220°
2026-04-25 12:43 57.93916 56.06930 800 ft 128 kts 221°
2026-04-25 12:43 57.93290 56.05707 661 ft 132 kts 222°
2026-04-25 12:43 57.92044 56.03295 398 ft 111 kts 224°
2026-04-25 12:44 57.91601 56.02430 399 ft 73 kts 226°
2026-04-25 12:44 57.91292 56.01829 397 ft 48 kts 225°
2026-04-25 12:44 57.91256 56.01559 395 ft 10 kts 314°
2026-04-25 12:45 57.91286 56.01506 393 ft 0 kts 317°
2026-04-25 12:46 57.91290 56.01500 395 ft 3 kts 317°
2026-04-25 12:47 57.91310 56.01464 396 ft 5 kts 317°
2026-04-25 12:47 57.91340 56.01412 391 ft 6 kts 316°
2026-04-25 12:47 57.91375 56.01349 392 ft 7 kts 316°
2026-04-25 12:47 57.91411 56.01283 394 ft 7 kts 316°
2026-04-25 12:48 57.91457 56.01260 396 ft 7 kts 355°
2026-04-25 12:48 57.91496 56.01222 396 ft 6 kts 317°
2026-04-25 12:48 57.91522 56.01176 396 ft 3 kts 316°
2026-04-25 12:48 57.91533 56.01157 394 ft 0 kts 316°